Regional Weather Roundup
Issued by NWS Huntsville, AL

Home | Current Version | Previous Version | Text Only | Print | Product List | Glossary On
Versions: 1 2 3 4 5 6 7 8 9 10 11 12 13 14 15 16 17 18 19 20 21 22 23 24 25 26 27 28 29 30 31 32 33 34 35 36 37 38 39 40 41 42 43 44 45 46 47 48 49 50
000
ASUS44 KHUN 280710
RWRHUN

WEATHER ROUNDUP FOR THE TENNESSEE VALLEY
NATIONAL WEATHER SERVICE HUNTSVILLE AL
200 AM CDT FRI JUL 28 2017

ALZ001>004-280800-
NORTHWEST ALABAMA

CITY           SKY/WX    TMP DP  RH WIND       PRES   REMARKS
COURTLAND HCN    N/A     81 N/A N/A SW5         N/A
RUSSELLVILLE     N/A     77 N/A N/A MISG        N/A
SHOALS AIRPORT HVY RAIN  76  72  87 N3        29.93R
SHOALS TVA RES   N/A     75 N/A N/A MISG        N/A
$$

ALZ005>007-016-280800-
NORTH CENTRAL ALABAMA

CITY           SKY/WX    TMP DP  RH WIND       PRES   REMARKS
CULLMAN AG STN   N/A     73 N/A N/A CALM        N/A
DECATUR AP     MOCLDY    82  75  79 W8        29.91S
HUNTSVILLE AP  MOCLDY    80  76  87 S3        29.91S
MERIDIANVILLE  CLOUDY    77  72  83 CALM      29.91F
REDSTONE ARSN  CLOUDY    78  74  90 S5        29.90F
VINEMONT AP    FAIR      75  71  87 CALM      29.96S
$$

ALZ008>010-280800-
NORTHEAST ALABAMA

CITY           SKY/WX    TMP DP  RH WIND       PRES   REMARKS
ALBERTVILLE    PTCLDY    77  77 100 SW5       29.94S
FORT PAYNE     CLEAR     72  70  94 CALM      29.93S
SCOTTSBORO AP  CLEAR     75  75 100 CALM      29.92S
SCOTTSBORO HCN   N/A     73 N/A N/A MISG        N/A
VALLEY HEAD      N/A     72 N/A N/A MISG        N/A
$$

TNZ076-096-097-280800-
SOUTHEASTERN MIDDLE TENNESSEE

CITY           SKY/WX    TMP DP  RH WIND       PRES   REMARKS
TULLAHOMA      MOCLDY    75  70  83 NW7       29.93S
WINCHESTER     MOCLDY    75  73  94 CALM      29.92F
$$

...SURROUNDING SITES...

CITY           SKY/WX    TMP DP  RH WIND       PRES   REMARKS
ATLANTA        MOCLDY    74  72  93 S5        29.95F
ANNISTON       CLOUDY    76  75  97 CALM      29.94F
BIRMINGHAM     PTCLDY    82  72  71 SW6       29.96S
CHATTANOOGA    MOCLDY    76  73  91 CALM      29.92F
CORINTH        CLOUDY    75  73  94 CALM      29.89S
DALTON         NOT AVBL
GADSDEN        CLEAR     74  74 100 CALM      29.93F
GOLDEN TRNGL   PTCLDY    81  70  69 SW5         N/A
JACKSON TN     CLOUDY    77  76  96 S5        29.87F
MEMPHIS        MOCLDY    81  79  94 SW8       29.87F HX  90
NASHVILLE      CLOUDY    76  72  87 W6        29.89F
OXFORD MS      LGT RAIN  77  73  88 SW6       29.92F
ROME           PTCLDY    72  72 100 CALM      29.92F
SAVANNAH       CLOUDY    75  75 100 VRB3      29.88F
TUPELO         CLOUDY    81  72  74 SW3       29.90F
TUSCALOOSA     CLEAR     79  78  97 CALM      29.92F
$$

...GULF COAST WEATHER...

CITY           SKY/WX    TMP DP  RH WIND       PRES   REMARKS
GULFPORT       PTCLDY    78  75  90 CALM      29.94S
PASCAGOULA     CLEAR     75  73  93 CALM      29.94F
MOBILE         CLEAR     76  74  93 CALM      29.95F
GULF SHORES    SUNNY     76  76 100 CALM      29.93F FOG
PENSACOLA      CLEAR     77  75  93 CALM      29.92F
DESTIN         PTCLDY    83  74  74 CALM      29.92F
PANAMA CITY    CLEAR     78  77  95 CALM      29.93F
APPALACHICOLA  CLEAR     76  75  97 CALM      29.93F
$$




USA.gov is the U.S. government's official web portal to all federal, state and local government web resources and services.